Overview Statistics Trail Chart Weather Telemetry Raw packets
 

This is the latest recevied weather packets stored in our database for station/object N7WSS. If no packets are shown the sender has not sent any weather packets the latest 10 day(s).

<< 1 2 3 4 5 >>
Time Temp. Humidity Pressure Rain* Wind** Luminosity Snow
1788636922 34.44° C 36% 1014.1 hPa 0 mm - - -
1788636617 35° C 36% 1014 hPa 0 mm - - -
1788636312 35° C 36% 1014.1 hPa 0 mm - - -
1788636008 34.44° C 37% 1014.4 hPa 0 mm - - -
1788635707 34.44° C 37% 1014.1 hPa 0 mm - - -
1788635406 33.89° C 37% 1014.3 hPa 0 mm - - -
1788635104 34.44° C 37% 1014.5 hPa 0 mm - - -
1788634803 33.33° C 38% 1014.5 hPa 0 mm - - -
1788634498 34.44° C 38% 1014.8 hPa 0 mm - - -
1788634197 35° C 36% 1015 hPa 0 mm - - -
1788633892 34.44° C 37% 1015 hPa 0 mm - - -
1788633591 33.33° C 38% 1014.9 hPa 0 mm - - -
1788633290 34.44° C 38% 1015.1 hPa 0 mm - - -
1788632986 33.89° C 38% 1015 hPa 0 mm - - -
1788632685 33.89° C 38% 1015.1 hPa 0 mm - - -
1788632381 33.89° C 38% 1015 hPa 0 mm - - -
1788632081 33.89° C 37% 1015.1 hPa 0 mm - - -
1788631780 33.33° C 38% 1015.2 hPa 0 mm - - -
1788631475 33.33° C 39% 1015.4 hPa 0 mm - - -
1788631170 33.33° C 39% 1015.1 hPa 0 mm - - -
1788630869 33.89° C 39% 1015.3 hPa 0 mm - - -
1788630565 33.89° C 38% 1015.3 hPa 0 mm - - -
1788630260 33.33° C 38% 1015.2 hPa 0 mm - - -
1788629956 33.33° C 38% 1015.2 hPa 0 mm - - -
1788629653 33.33° C 39% 1015.3 hPa 0 mm - - -

* Rain latest hour (hover to see other rain measurements)
** Current wind speed in m/s (hover to see current wind gust speed)